FW2270 Weather Reports


Display with metric or nautical units.
time (UTC)temp
F
wind
direction
speed
MPH
gust
MPH
rain 1hr
in
rain 24hr
in
rain mn
in
humidity
%
barometer
mb
20210805074433 56 308 2.0 8.0 0.00 0.00 0.00 95 1015.9
20210805073427 56 309 1.0 3.0 0.00 0.00 0.00 95 1015.8
20210805072423 56 300 2.0 4.0 0.00 0.00 0.00 95 1015.8
20210805071415 56 260 1.0 4.0 0.00 0.00 0.00 95 1015.6
20210805070428 56 312 1.0 3.0 0.00 0.00 0.00 95 1015.7
20210805065423 56 285 1.0 3.0 0.00 0.00 0.00 95 1015.6
20210805064415 56 278 3.0 6.0 0.00 0.00 0.00 95 1015.6
20210805063426 56 310 1.0 4.0 0.00 0.00 0.00 95 1015.6
20210805062420 56 298 2.0 4.0 0.00 0.00 0.00 95 1015.6
20210805061417 56 318 3.0 6.0 0.00 0.00 0.00 95 1015.8
20210805060427 56 325 4.0 9.0 0.00 0.00 0.00 94 1015.7
20210805055417 56 254 2.0 4.0 0.00 0.00 0.00 95 1015.8
20210805054414 56 307 3.0 7.0 0.00 0.00 0.00 94 1015.8
20210805053428 56 278 2.0 5.0 0.00 0.00 0.00 94 1015.8
20210805052421 56 248 2.0 9.0 0.00 0.00 0.00 94 1015.9
20210805051414 56 311 1.0 4.0 0.00 0.00 0.00 94 1016.0
20210805050432 56 286 1.0 4.0 0.00 0.00 0.00 94 1015.9
20210805045421 56 287 3.0 6.0 0.00 0.00 0.00 94 1015.9
20210805044433 56 296 1.0 12.0 0.00 0.00 0.00 94 1015.8
20210805043429 56 260 2.0 7.0 0.00 0.00 0.00 94 1015.6
20210805042421 56 296 5.0 10.0 0.00 0.00 0.00 94 1015.6
20210805041414 56 286 5.0 11.0 0.00 0.00 0.00 94 1015.5
20210805040426 56 302 3.0 7.0 0.00 0.00 0.00 93 1015.5
20210805035420 56 260 1.0 7.0 0.00 0.00 0.00 93 1015.4
20210805034432 57 284 4.0 8.0 0.00 0.00 0.00 93 1015.4
20210805033426 57 291 2.0 7.0 0.00 0.00 0.00 92 1015.2
20210805032424 57 317 3.0 9.0 0.00 0.00 0.00 92 1015.2
20210805031415 57 263 3.0 6.0 0.00 0.00 0.00 91 1015.2
20210805030429 58 310 3.0 8.0 0.00 0.00 0.00 91 1015.2
20210805025420 58 284 1.0 6.0 0.00 0.00 0.00 90 1015.1
20210805024416 58 285 2.0 10.0 0.00 0.00 0.00 90 1015.2
20210805023429 58 300 4.0 8.0 0.00 0.00 0.00 90 1015.1
20210805022422 58 324 4.0 10.0 0.00 0.00 0.00 89 1015.2
20210805021418 58 288 2.0 14.0 0.00 0.00 0.00 89 1015.1
20210805020432 58 305 5.0 12.0 0.00 0.00 0.00 89 1015.1
20210805015422 59 258 4.0 11.0 0.00 0.00 0.00 88 1015.1
20210805014415 59 258 5.0 12.0 0.00 0.00 0.00 88 1015.1
20210805013432 59 261 7.0 11.0 0.00 0.00 0.00 87 1015.2
20210805012424 60 279 6.0 11.0 0.00 0.00 0.00 86 1015.3
20210805011415 60 297 3.0 14.0 0.00 0.00 0.00 86 1015.4
20210805010429 60 291 6.0 11.0 0.00 0.00 0.00 85 1015.5
20210805005424 61 323 6.0 14.0 0.00 0.00 0.00 83 1015.5
20210805004432 62 284 3.0 12.0 0.00 0.00 0.00 81 1015.5
20210805003425 62 269 4.0 11.0 0.00 0.00 0.00 81 1015.5
20210805002422 62 278 7.0 13.0 0.00 0.00 0.00 80 1015.4
20210805001414 63 310 6.0 12.0 0.00 0.00 0.00 80 1015.3
20210805000430 63 260 9.0 16.0 0.00 0.00 0.00 78 1015.2
20210804235419 63 263 8.0 16.0 0.00 0.00 0.00 77 1015.5
20210804234415 64 274 9.0 14.0 0.00 0.00 0.00 78 1015.4
20210804233426 63 296 9.0 17.0 0.00 0.00 0.00 76 1015.5
20210804232418 64 284 8.0 21.0 0.00 0.00 0.00 75 1015.6
20210804231415 65 290 9.0 14.0 0.00 0.00 0.00 72 1015.4
20210804230428 66 249 7.0 15.0 0.00 0.00 0.00 72 1015.3
20210804225420 66 255 8.0 16.0 0.00 0.00 0.00 71 1015.4
20210804224432 67 251 8.0 14.0 0.00 0.00 0.00 70 1015.4
20210804223429 67 249 7.0 13.0 0.00 0.00 0.00 70 1015.4
20210804222421 67 232 8.0 13.0 0.00 0.00 0.00 69 1015.5
20210804221432 67 272 9.0 14.0 0.00 0.00 0.00 70 1015.5
20210804220429 67 298 7.0 15.0 0.00 0.00 0.00 70 1015.7
20210804215419 67 269 7.0 13.0 0.00 0.00 0.00 70 1015.7
20210804214432 66 299 8.0 16.0 0.00 0.00 0.00 70 1015.8
20210804213425 67 266 7.0 14.0 0.00 0.00 0.00 69 1015.8
20210804212420 67 321 7.0 13.0 0.00 0.00 0.00 68 1015.8
20210804211432 67 270 8.0 16.0 0.00 0.00 0.00 69 1015.9
20210804210427 68 266 6.0 14.0 0.00 0.00 0.00 68 1015.9
20210804205420 68 282 6.0 13.0 0.00 0.00 0.00 66 1015.9
20210804204434 68 258 5.0 16.0 0.00 0.00 0.00 66 1016.1
20210804203427 69 277 7.0 13.0 0.00 0.00 0.00 65 1015.9
20210804202419 69 251 5.0 13.0 0.00 0.00 0.00 64 1016.2
20210804201415 70 255 4.0 13.0 0.00 0.00 0.00 64 1016.4
20210804200427 70 281 7.0 10.0 0.00 0.00 0.00 63 1016.3
20210804195418 70 307 5.0 10.0 0.00 0.00 0.00 64 1016.3
20210804194415 69 312 6.0 12.0 0.00 0.00 0.00 65 1016.3
20210804193428 69 318 2.0 8.0 0.00 0.00 0.00 67 1016.4
20210804192421 67 282 3.0 10.0 0.00 0.00 0.00 70 1016.5
20210804191433 65 334 4.0 8.0 0.00 0.00 0.00 71 1016.5
20210804190430 65 284 2.0 7.0 0.00 0.00 0.00 73 1016.7
20210804185420 63 326 4.0 9.0 0.00 0.00 0.00 74 1016.7
20210804184432 64 299 3.0 11.0 0.00 0.00 0.00 76 1016.7
20210804183424 64 275 4.0 9.0 0.00 0.00 0.00 75 1016.7
20210804182419 63 263 3.0 8.0 0.00 0.00 0.00 77 1016.7
20210804181430 62 327 4.0 9.0 0.00 0.00 0.00 79 1016.7
20210804180422 60 294 4.0 10.0 0.00 0.00 0.00 83 1016.5
20210804175433 59 293 2.0 4.0 0.00 0.00 0.00 87 1016.4
20210804111424 53 296 0.0 2.0 0.00 0.00 0.00 96 1014.9
20210804110417 53 308 0.0 3.0 0.00 0.00 0.00 96 1015.0
20210804105428 53 319 2.0 4.0 0.00 0.00 0.00 96 1015.0
20210804104426 53 304 0.0 4.0 0.00 0.00 0.00 96 1015.0
20210804103421 53 303 0.0 4.0 0.00 0.00 0.00 96 1015.0
20210804102433 53 308 1.0 4.0 0.00 0.00 0.00 96 1014.9
20210804101431 53 296 2.0 5.0 0.00 0.00 0.00 95 1014.8
20210804100423 53 291 1.0 7.0 0.00 0.00 0.00 95 1014.7
20210804095434 53 271 1.0 5.0 0.00 0.00 0.00 95 1014.8
20210804094426 53 278 2.0 5.0 0.00 0.00 0.00 95 1014.8
20210804093424 53 292 1.0 4.0 0.00 0.00 0.00 95 1014.9
20210804092416 53 315 2.0 4.0 0.00 0.00 0.00 95 1015.0
20210804091430 53 319 2.0 6.0 0.00 0.00 0.00 95 1015.0
20210804090426 54 315 3.0 6.0 0.00 0.00 0.00 95 1015.0
20210804085417 54 279 2.0 4.0 0.00 0.00 0.00 95 1015.1
20210804084428 54 286 1.0 5.0 0.00 0.00 0.00 95 1015.0
20210804083421 54 308 1.0 5.0 0.00 0.00 0.00 95 1015.1
20210804082416 54 314 4.0 6.0 0.00 0.00 0.00 95 1015.2
20210804081427 54 313 1.0 6.0 0.00 0.00 0.00 95 1015.2
20210804080420 54 303 2.0 5.0 0.00 0.00 0.00 95 1015.1
20210804075417 54 260 4.0 7.0 0.00 0.00 0.00 95 1015.1